ONEWEB-0085 (45438 NORAD) Tracking and Keplerian Element Data

This shows tracking and keplerian element data for the satellite.

Feedback or suggestion? Click here.




ElementValue
Catalog45438
NameONEWEB-0085
Epoch Orbit1634
Epoch Day190.25001157
Epoch Year2020
RAAN103.474
Inclination87.5698
Eccentricity0.0020562
Argument of Perigee259.1279
Mean Anonmoly137.0555
Mean Motion14.90213442
Decay Rate0.00014002
L11 45438U 20020Q 20190.25001157 .00014002 00000-0 14354-2 0 9997
L22 45438 87.5698 103.4740 0020562 259.1279 137.0555 14.90213442 16348

Live tracking and technical data element details for ONEWEB-0085 (NORAD 45438). ONEWEB-0085 can be tracked NOW for your location showing map with azimuth and elevation plus other details from your city location.

Track the satellite on the map from your city or location and see movement details for azimuth, elevation, latitude, longitude, range, height, and movement on the map or in text.







IsCatalogInMostPopularTable: catalog: 45438, numindb: 25
Update: records affected: 1



GetName: 45438 ONEWEB-0085

Hit Count: updated at: Thu, 09 Jul 2020 02:29:45 GMT